When you browse on this site, cookies collect data to enhance your experience and personalize the content and advertising you see.
Visit our Privacy Policy to learn more. By continuing to use the site, you agree to this use of cookies and data.
  • In Spain
  • List of Countries
  • For 7 days
  • Water Temperature
  • Weather Map
  • Weather Widgets
  • user-avatar
    Login

    Hourly Weather Dorchester

    Today, 13 December, Friday

    Time Temperature Precipitation Wind Pressure Humidity
    00:00 +6°C° 0 mm 5 mps 724 mmHg 95%
    01:00 +5°C° 0.4 mm 7 mps 724 mmHg 92%
    02:00 +5°C° 0.4 mm 8 mps 724 mmHg 89%
    03:00 +3°C° 0.4 mm 10 mps 724 mmHg 86%
    04:00 +3°C° 0.1 mm 10 mps 725 mmHg 86%
    05:00 +3°C° 0.1 mm 10 mps 726 mmHg 85%
    06:00 +3°C° 0.1 mm 10 mps 727 mmHg 85%
    07:00 +3°C° 0.1 mm 10 mps 728 mmHg 84%
    08:00 +3°C° 0.1 mm 10 mps 729 mmHg 82%
    09:00 +3°C° 0.1 mm 9 mps 730 mmHg 81%
    10:00 +3°C° 0 mm 9 mps 731 mmHg 79%
    11:00 +3°C° 0 mm 9 mps 732 mmHg 77%
    12:00 +5°C° 0 mm 9 mps 733 mmHg 75%
    13:00 +3°C° 0 mm 9 mps 733 mmHg 75%
    14:00 +3°C° 0 mm 9 mps 733 mmHg 75%
    15:00 +3°C° 0 mm 9 mps 734 mmHg 75%
    16:00 +2°C° 0 mm 8 mps 734 mmHg 76%
    17:00 +3°C° 0 mm 7 mps 734 mmHg 77%
    18:00 +2°C° 0 mm 6 mps 734 mmHg 78%
    19:00 +2°C° 0 mm 6 mps 734 mmHg 82%
    20:00 +2°C° 0 mm 5 mps 733 mmHg 85%
    21:00 +3°C° 0 mm 4 mps 732 mmHg 89%
    22:00 +3°C° 0.6 mm 3 mps 732 mmHg 92%
    23:00 +4°C° 0.6 mm 3 mps 731 mmHg 94%

    Tomorrow, 14 December, Saturday

    Time Temperature Precipitation Wind Pressure Humidity
    00:00 +6°C° 0.6 mm 2 mps 731 mmHg 96%
    01:00 +4°C° 0.2 mm 4 mps 732 mmHg 93%
    02:00 +3°C° 0.2 mm 5 mps 733 mmHg 89%
    03:00 +3°C° 0.2 mm 7 mps 734 mmHg 85%
    04:00 +3°C° 0 mm 7 mps 734 mmHg 83%
    05:00 +2°C° 0 mm 7 mps 735 mmHg 80%
    06:00 +2°C° 0 mm 6 mps 736 mmHg 77%
    07:00 +2°C° 0.1 mm 6 mps 736 mmHg 80%
    08:00 +2°C° 0.1 mm 6 mps 737 mmHg 83%
    09:00 +2°C° 0.1 mm 6 mps 737 mmHg 86%
    10:00 +2°C° 0.3 mm 7 mps 738 mmHg 81%
    11:00 +2°C° 0.3 mm 8 mps 739 mmHg 75%
    12:00 +4°C° 0.3 mm 8 mps 739 mmHg 70%
    13:00 +3°C° 0 mm 7 mps 739 mmHg 71%
    14:00 +3°C° 0 mm 6 mps 739 mmHg 72%
    15:00 +3°C° 0 mm 5 mps 740 mmHg 73%
    16:00 +3°C° 0 mm 5 mps 739 mmHg 76%
    17:00 +2°C° 0 mm 6 mps 738 mmHg 78%
    18:00 +2°C° 0 mm 6 mps 737 mmHg 80%
    19:00 +3°C° 0.9 mm 7 mps 737 mmHg 83%
    20:00 +4°C° 0.9 mm 8 mps 736 mmHg 85%
    21:00 +5°C° 0.9 mm 10 mps 735 mmHg 88%
    22:00 +3°C° 0.1 mm 9 mps 735 mmHg 85%
    23:00 +2°C° 0.1 mm 9 mps 735 mmHg 82%

    Day after tomorrow, 15 December, Sunday

    Time Temperature Precipitation Wind Pressure Humidity
    00:00 +2°C° 0.1 mm 8 mps 735 mmHg 79%
    01:00 +1°C° 0 mm 9 mps 736 mmHg 77%
    02:00 +1°C° 0 mm 10 mps 737 mmHg 75%
    03:00 +1°C° 0 mm 10 mps 738 mmHg 73%
    04:00 0°C° 0 mm 8 mps 739 mmHg 75%
    05:00 0°C° 0 mm 7 mps 740 mmHg 77%
    06:00 +1°C° 0 mm 5 mps 741 mmHg 79%
    07:00 +1°C° 0 mm 5 mps 742 mmHg 80%
    08:00 +1°C° 0 mm 6 mps 742 mmHg 81%
    09:00 +2°C° 0 mm 6 mps 742 mmHg 82%
    10:00 +3°C° 0 mm 7 mps 743 mmHg 79%
    11:00 +4°C° 0 mm 7 mps 743 mmHg 76%
    12:00 +5°C° 0 mm 7 mps 743 mmHg 73%
    13:00 +4°C° 0.1 mm 7 mps 743 mmHg 75%
    14:00 +4°C° 0.1 mm 6 mps 743 mmHg 76%
    15:00 +5°C° 0.1 mm 5 mps 743 mmHg 78%
    16:00 +5°C° 0.1 mm 5 mps 743 mmHg 81%
    17:00 +5°C° 0.1 mm 5 mps 743 mmHg 83%
    18:00 +4°C° 0.1 mm 6 mps 742 mmHg 86%
    19:00 +3°C° 0.2 mm 5 mps 743 mmHg 86%
    20:00 +3°C° 0.2 mm 5 mps 743 mmHg 87%
    21:00 +4°C° 0.2 mm 4 mps 743 mmHg 88%
    22:00 +4°C° 0 mm 4 mps 743 mmHg 86%
    23:00 +3°C° 0 mm 5 mps 743 mmHg 85%

    16 December, Monday

    Time Temperature Precipitation Wind Pressure Humidity
    00:00 +3°C° 0 mm 5 mps 743 mmHg 84%
    01:00 +3°C° 0 mm 5 mps 743 mmHg 83%
    02:00 +3°C° 0 mm 5 mps 743 mmHg 83%
    03:00 +3°C° 0 mm 5 mps 743 mmHg 82%
    04:00 +3°C° 0 mm 5 mps 743 mmHg 83%
    05:00 +3°C° 0 mm 5 mps 743 mmHg 83%
    06:00 +3°C° 0 mm 5 mps 743 mmHg 83%
    07:00 +3°C° 0 mm 5 mps 743 mmHg 83%
    08:00 +4°C° 0 mm 6 mps 744 mmHg 83%
    09:00 +4°C° 0 mm 6 mps 744 mmHg 83%
    10:00 +5°C° 0 mm 5 mps 745 mmHg 81%
    11:00 +6°C° 0 mm 5 mps 745 mmHg 79%
    12:00 +6°C° 0 mm 5 mps 745 mmHg 77%
    13:00 +6°C° 0 mm 5 mps 745 mmHg 79%
    14:00 +6°C° 0 mm 4 mps 745 mmHg 80%
    15:00 +5°C° 0 mm 4 mps 746 mmHg 81%
    16:00 +4°C° 0 mm 3 mps 746 mmHg 83%
    17:00 +4°C° 0 mm 3 mps 746 mmHg 85%
    18:00 +4°C° 0 mm 2 mps 747 mmHg 87%
    19:00 +4°C° 0 mm 2 mps 747 mmHg 88%
    20:00 +4°C° 0 mm 2 mps 747 mmHg 89%
    21:00 +4°C° 0 mm 1 mps 748 mmHg 89%
    22:00 +4°C° 0 mm 1 mps 748 mmHg 89%
    23:00 +4°C° 0 mm 1 mps 748 mmHg 88%

    17 December, Tuesday

    Time Temperature Precipitation Wind Pressure Humidity
    00:00 +3°C° 0 mm 0 mps 748 mmHg 87%
    01:00 +3°C° 0 mm 0 mps 748 mmHg 86%
    02:00 +4°C° 0 mm 1 mps 748 mmHg 85%
    03:00 +4°C° 0 mm 1 mps 748 mmHg 85%
    04:00 +4°C° 0 mm 1 mps 748 mmHg 85%
    05:00 +4°C° 0 mm 1 mps 749 mmHg 85%
    06:00 +3°C° 0 mm 1 mps 749 mmHg 86%
    07:00 +3°C° 0 mm 1 mps 749 mmHg 86%
    08:00 +3°C° 0 mm 1 mps 749 mmHg 85%
    09:00 +3°C° 0 mm 1 mps 750 mmHg 85%
    10:00 +4°C° 0 mm 1 mps 750 mmHg 83%
    11:00 +5°C° 0 mm 1 mps 750 mmHg 80%
    12:00 +6°C° 0 mm 1 mps 750 mmHg 77%
    13:00 +5°C° 0 mm 1 mps 750 mmHg 79%
    14:00 +5°C° 0 mm 1 mps 750 mmHg 81%
    15:00 +5°C° 0 mm 1 mps 750 mmHg 83%
    16:00 +4°C° 0 mm 1 mps 750 mmHg 84%
    17:00 +4°C° 0 mm 1 mps 751 mmHg 85%
    18:00 +3°C° 0 mm 1 mps 751 mmHg 85%
    19:00 +3°C° 0 mm 1 mps 751 mmHg 86%
    20:00 +3°C° 0 mm 1 mps 752 mmHg 86%
    21:00 +2°C° 0 mm 1 mps 752 mmHg 86%
    22:00 +2°C° 0 mm 1 mps 752 mmHg 85%
    23:00 +2°C° 0 mm 1 mps 753 mmHg 85%

    18 December, Wednesday

    Time Temperature Precipitation Wind Pressure Humidity
    00:00 +2°C° 0 mm 1 mps 753 mmHg 85%
    01:00 +2°C° 0 mm 1 mps 753 mmHg 85%
    02:00 +2°C° 0 mm 1 mps 753 mmHg 86%
    03:00 +2°C° 0 mm 1 mps 753 mmHg 87%
    04:00 +2°C° 0 mm 1 mps 753 mmHg 87%
    05:00 +2°C° 0 mm 1 mps 754 mmHg 87%
    06:00 +2°C° 0 mm 1 mps 754 mmHg 87%
    07:00 +2°C° 0 mm 1 mps 754 mmHg 86%
    08:00 +2°C° 0 mm 1 mps 755 mmHg 85%
    09:00 +3°C° 0 mm 1 mps 755 mmHg 84%
    10:00 +2°C° 0 mm 2 mps 755 mmHg 80%
    11:00 +3°C° 0 mm 2 mps 755 mmHg 75%
    12:00 +4°C° 0 mm 2 mps 755 mmHg 71%
    13:00 +4°C° 0 mm 2 mps 755 mmHg 73%
    14:00 +3°C° 0 mm 2 mps 755 mmHg 76%
    15:00 +3°C° 0 mm 2 mps 754 mmHg 78%
    16:00 +2°C° 0 mm 2 mps 754 mmHg 80%
    17:00 +1°C° 0 mm 3 mps 754 mmHg 83%
    18:00 0°C° 0 mm 3 mps 754 mmHg 85%
    19:00 0°C° 0 mm 3 mps 754 mmHg 85%
    20:00 0°C° 0 mm 3 mps 753 mmHg 85%
    21:00 0°C° 0 mm 3 mps 753 mmHg 85%
    22:00 -1°C° 0 mm 4 mps 753 mmHg 87%
    23:00 -1°C° 0 mm 4 mps 752 mmHg 89%
    Show more